Weather observations for the past three days for
Florence - Florence Regional Airport
Metric (Imperial)
Date Time (edt) Wind (kph) Vis. (km) Weather Sky Cond. Temperature (ºC) Relative Humidity Wind Chill (°C) Heat Index (°C) Pressure Precipitation (cm)
Air Dwpt 6 hour altimeter (cm) sea level (mb) 1 hr 3 hr 6 hr
Max. Min.
21 12:53 E 13 16.09 Mostly Cloudy BKN039 26.7 16.1 52% 27 76.28 1016.7
21 11:53 NE 17 16.09 A Few Clouds FEW034 26.1 16.1 54% 27 76.33 1017.1
21 10:53 Vrbl 7 16.09 Fair CLR 24.4 16.7 62% 25 76.33 1017.4
21 09:53 NE 13 16.09 Fair CLR 23.3 16.1 64% 76.35 1017.6
21 08:53 E 7 16.09 Fair CLR 20.6 16.7 78% 76.35 1017.5
21 07:53 NE 11 16.09 Fair CLR 18.3 16.1 18.3 14.4 87% 76.3 1017.0
21 06:53 N 7 12.87 Fair CLR 16.7 16.1 96% 76.28 1016.6
21 05:53 N 9 16.09 Fair CLR 16.1 15.6 97% 76.23 1015.7
21 04:53 NW 7 16.09 Fair CLR 15.6 15 96% 76.17 1015.4
21 03:53 Calm 16.09 Fair CLR 14.4 14.4 100% 76.17 1015.3
21 02:53 Calm 16.09 Fair CLR 15.6 15 96% 76.2 1015.4
21 01:53 Calm 16.09 Fair CLR 15.6 15 24.4 15.6 96% 76.2 1015.6
21 00:53 Calm 16.09 Fair CLR 17.2 16.1 93% 76.23 1015.8
20 23:53 Calm 16.09 Fair CLR 16.7 15.6 93% 76.25 1016.1
20 22:53 Calm 16.09 Fair CLR 18.3 16.1 87% 76.25 1016.2
20 21:53 E 9 16.09 Fair CLR 20.6 16.7 78% 76.2 1015.7
20 19:53 NE 9 16.09 Fair CLR 24.4 16.1 27.8 24.4 60% 26 76.15 1014.8
20 18:53 E 17 G 28 16.09 Mostly Cloudy FEW042 BKN050 26.1 16.1 54% 27 76.12 1014.6
20 17:53 E 17 16.09 Partly Cloudy SCT050 25.6 16.1 56% 26 76.12 1014.4
20 16:53 E 19 16.09 Mostly Cloudy BKN047 26.1 15.6 52% 27 76.12 1014.6
20 15:53 NE 13 16.09 A Few Clouds FEW049 26.7 15.6 51% 27 76.12 1014.7
20 14:53 N 20 G 33 16.09 Mostly Cloudy FEW042 BKN050 26.7 16.1 52% 27 76.17 1015.3
20 13:53 NE 19 G 28 16.09 Partly Cloudy SCT044 26.1 15.6 26.1 18.3 52% 27 76.2 1015.4
20 12:53 NE 19 G 31 16.09 Mostly Cloudy FEW036 BKN046 25 16.1 58% 26 76.2 1015.7
20 11:53 NE 19 16.09 Mostly Cloudy BKN032 BKN043 24.4 16.1 60% 26 76.25 1016.3
20 10:53 NE 19 16.09 Mostly Cloudy BKN022 22.8 16.1 66% 76.28 1016.4
20 09:53 NE 17 16.09 Mostly Cloudy BKN016 BKN022 21.1 16.7 76% 76.25 1016.3
20 08:53 NE 13 16.09 Partly Cloudy SCT009 20 16.7 81% 76.23 1016.1
20 07:53 NE 9 16.09 Fair CLR 18.3 16.7 18.3 16.1 90% 76.25 1016.2
20 05:53 N 7 11.27 Fair CLR 16.1 15.6 97% 76.15 1015.0
20 04:53 N 9 12.87 Fair CLR 16.7 16.7 100% 76.15 1014.8
20 03:53 N 11 16.09 Fair CLR 17.2 16.7 97% 76.1 1014.3
20 02:53 NE 7 16.09 Fair CLR 17.2 16.7 97% 76.12 1014.5
20 01:53 NE 9 16.09 A Few Clouds FEW044 18.3 17.2 20 16.7 93% 76.15 1015.0
20 00:53 N 9 16.09 Mostly Cloudy BKN045 17.8 17.2 96% 76.15 1015.1
19 23:53 Calm 14.48 A Few Clouds FEW046 17.2 16.1 93% 76.15 1015.1
19 22:53 Calm 16.09 Partly Cloudy SCT043 17.8 17.2 96% 76.15 1014.9
19 21:53 Calm 16.09 Fair CLR 17.8 17.2 96% 76.15 1015.1
19 20:53 Calm 16.09 Mostly Cloudy BKN043 18.9 17.8 93% 76.12 1014.7
19 18:53 NE 9 16.09 Overcast OVC036 21.1 17.2 79% 76.1 1014.1
19 17:53 NE 13 16.09 Overcast OVC026 21.1 17.2 79% 76.07 1013.8
19 16:53 NE 17 16.09 Overcast OVC027 21.7 17.2 76% 76.02 1013.2
19 14:53 NE 19 16.09 Overcast BKN018 OVC024 21.7 16.7 73% 76.05 1013.4
19 13:53 N 20 16.09 Overcast BKN015 OVC023 22.2 17.2 22.2 18.9 73% 76.07 1013.8
19 12:53 NE 17 16.09 Overcast OVC011 20 16.7 81% 76.1 1014.3
19 11:53 NE 17 16.09 Overcast OVC009 18.9 17.2 90% 76.12 1014.6
19 10:53 N 17 16.09 Light Rain BKN012 OVC018 18.9 17.8 93% 76.1 1014.1
19 09:53 NE 19 16.09 Overcast BKN009 OVC017 19.4 18.3 93% 76.07 1013.7
19 08:53 NE 19 6.44 Fog/Mist OVC006 18.9 18.9 100% 76.02 1013.2
19 07:53 NE 22 6.44 Fog/Mist OVC006 19.4 18.9 21.7 19.4 97% 75.97 1012.4 0.05 0.05
19 06:53 NE 15 6.44 Light Rain Fog/Mist OVC003 20 19.4 96% 75.95 1012.2
19 05:53 N 9 14.48 Overcast OVC003 20.6 20 96% 75.87 1011.0
19 04:53 N 9 14.48 Overcast BKN003 BKN010 OVC021 20.6 20 96% 75.82 1010.6
19 03:53 N 7 16.09 Partly Cloudy SCT025 21.1 20.6 97% 75.82 1010.5
19 02:53 Calm 16.09 Mostly Cloudy SCT016 BKN022 21.7 20.6 94% 75.84 1010.9
19 01:53 NW 6 16.09 Overcast FEW014 OVC034 21.7 20.6 24.4 21.7 94% 75.92 1011.8
19 00:53 Calm 16.09 Mostly Cloudy BKN120 22.2 20 87% 75.9 1011.4
18 23:53 SW 15 16.09 Overcast SCT039 BKN080 OVC110 22.8 20.6 87% 75.9 1011.6
18 22:53 SW 6 16.09 Mostly Cloudy BKN110 21.7 21.1 96% 75.9 1011.5
18 21:53 S 6 16.09 Fair CLR 22.2 21.1 94% 75.77 1009.9
18 20:53 SW 6 16.09 Overcast OVC110 23.3 20.6 85% 75.74 1009.5
18 19:53 SW 9 16.09 Fair CLR 24.4 20.6 27.8 24.4 79% 25 75.72 1009.2
18 18:53 W 15 16.09 Fair CLR 25.6 21.1 76% 27 75.77 1009.7
18 17:53 SW 15 16.09 Fair CLR 26.1 20.6 72% 28 75.74 1009.4
18 16:53 SW 31 G 41 16.09 A Few Clouds FEW031 27.2 20.6 67% 29 75.82 1010.4
18 15:53 SW 17 16.09 Mostly Cloudy FEW022 SCT028 BKN110 26.7 22.2 76% 29 75.9 1011.3
18 14:53 SW 15 16.09 Mostly Cloudy BKN016 BKN031 26.7 22.2 76% 29 75.92 1011.9
18 13:53 SW 15 16.09 Overcast BKN018 OVC024 26.1 22.2 26.1 22.8 79% 28 75.97 1012.4 0.38
Date Time (edt) Wind (kph) Vis. (km) Weather Sky Cond. Air Dwpt Max. Min. Relative Humidity Wind Chill (°C) Heat Index (°C) altimeter (cm) sea level (mb) 1 hr 3 hr 6 hr
6 hour
Temperature (ºC) Pressure Precipitation (cm)